Regional Weather Roundup
Issued by NWS

Home | Current Version | Previous Version | Graphics & Text | Print | Product List | Glossary On
Versions: 1 2 3 4 5 6 7 8 9 10 11 12 13 14 15 16 17 18 19 20 21 22 23 24 25 26 27 28 29 30 31 32 33 34 35 36 37 38 39 40 41 42 43 44 45 46 47 48 49 50
000
ASUS43 KOAX 231002
RWRNE

WEATHER ROUNDUP FOR NEBRASKA
NATIONAL WEATHER SERVICE OMAHA NE
500 AM CDT THU MAR 23 2017

NOTES: SATELLITE DATA IS BEING USED TO AUGMENT CLOUD COVER ABOVE
       12000 FEET.
       "FAIR" INDICATES FEW OR NO CLOUDS BELOW 12,000 FEET WITH NO
       SIGNIFICANT WEATHER AND/OR OBSTRUCTIONS TO VISIBILITY.

  * THESE STATIONS DO NOT REPORT WEATHER SUCH AS RAIN...SNOW OR FOG.

NEZ001>004-019>022-054>056-231100-
NEBRASKA PANHANDLE

CITY           SKY/WX    TMP DP  RH WIND       PRES   REMARKS
SCOTTSBLUFF    CLOUDY    43  34  70 E12       29.71F
ALLIANCE       CLOUDY    40  34  79 S16G25    29.72F WCI  31
CHADRON        CLOUDY    46  36  68 VRB5      29.70S
KIMBALL        CLOUDY    37  37  97 CALM      29.71F
SIDNEY         CLOUDY    35  32  88 SE6       29.71F WCI  30
$$

NEZ057>060-069>072-079>082-231100-
SOUTHWEST NEBRASKA

CITY           SKY/WX    TMP DP  RH WIND       PRES   REMARKS
NORTH PLATTE   CLOUDY    46  35  65 SE15G28   29.80F
IMPERIAL       PTCLDY    41  38  89 SE9       29.76F
LEXINGTON      CLOUDY    45  33  63 SE14      29.84F
MCCOOK         CLOUDY    43  37  79 SE8       29.81F
OGALLALA       CLOUDY    40  36  86 E7        29.77F WCI  35
$$

NEZ005>010-023>029-035>040-094-231100-
NORTH CENTRAL NEBRASKA

CITY           SKY/WX    TMP DP  RH WIND       PRES   REMARKS
VALENTINE      CLOUDY    43  33  68 S12       29.78F
AINSWORTH      PTCLDY    42  36  78 S15G21    29.80F
BROKEN BOW     CLOUDY    42  31  64 SE12      29.84F
O`NEILL        PTCLDY    46  30  55 S17       29.88F
ORD            CLOUDY    45  27  49 SE12      29.87F
THEDFORD       CLOUDY    44  36  74 SE12      29.80F
$$

NEZ041-046>049-061>064-073>077-083>087-231100-
SOUTH CENTRAL NEBRASKA

CITY           SKY/WX    TMP DP  RH WIND       PRES   REMARKS
GRAND ISLAND   CLOUDY    47  30  51 SE13      29.92F
AURORA         MOCLDY    47  30  52 SE12      29.93F
HASTINGS       CLOUDY    48  30  49 SE16      29.92F
HEBRON         CLOUDY    50  32  50 SE14      29.96F
HOLDREGE       CLOUDY    47  36  63 SE20G25   29.85F
KEARNEY *      CLOUDY    45  28  53 SE13      29.89F
YORK           CLOUDY    48  32  53 SE14G21   29.96F
$$

NEZ011>018-030>034-042>045-231100-
NORTHEAST NEBRASKA

CITY           SKY/WX    TMP DP  RH WIND       PRES   REMARKS
NORFOLK        PTCLDY    43  26  51 SE13      29.95F
ALBION         CLOUDY    47  28  47 SE13      29.93F
BLAIR          CLOUDY    45  24  43 SE12      30.03F
FREMONT        PTCLDY    44  26  49 SE10      30.02F
TEKAMAH        CLOUDY    43  23  45 SE14      30.05F
WAYNE          CLOUDY    42  28  58 SE16      29.99F
$$

NEZ050>053-065>068-078-088>093-231100-
SOUTHEAST NEBRASKA

CITY           SKY/WX    TMP DP  RH WIND       PRES   REMARKS
LINCOLN        CLOUDY    49  28  44 SE12      30.02F
OMAHA EPPLEY   CLOUDY    46  21  37 SE16      30.05F
BEATRICE       CLOUDY    51  35  55 SE13G18   30.00F
FALLS CITY     CLOUDY    51  33  50 SE10      30.04F
NEBRASKA CITY  CLOUDY    47  18  31 SE12G17   30.04F
PLATTSMOUTH    CLOUDY    46  18  32 SE12G18   30.04F
$$

NEZ044-045-051>053-067-231100-
OMAHA AREA

CITY           SKY/WX    TMP DP  RH WIND       PRES   REMARKS
OMAHA EPPLEY   CLOUDY    46  21  37 SE16      30.05F
BLAIR          CLOUDY    45  24  43 SE12      30.03F
FREMONT        PTCLDY    44  26  49 SE10      30.02F
MILLARD        MOCLDY    47  26  43 SE8       30.04F
OFFUTT AFB     CLOUDY    46  21  37 SE16      30.05F
PLATTSMOUTH    CLOUDY    46  18  32 SE12G18   30.04F
WAHOO          FAIR      42  25  51 SE9       30.01F
$$




USA.gov is the U.S. government's official web portal to all federal, state and local government web resources and services.